Content
SEND FEEDBACK

Daily
Averages
Monthly
Summary
United States of America

EVANSVILLE, WYOMING


Home > North America > United States > Wyoming
Elevation: 5178 feet     Latitude: 42 52N     Longitude: 106 18W

WEATHER
 
SELECT A DAY
Number of Records: 193,287;   Date Range: 1/1/95 - 7/29/14
 
SHARE

PRINT THIS DATA

[ ← Previous Day ]
WEATHER ALMANAC - FEBRUARY 13, 2013
[ Next Day → ]
[ °C ]   °F
Weather ElementAverageHighLow
Temperature28.6 °F39 °F (1:53 pm)21 °F (1:53 am)
Dewpoint19.2 °F26.6 °F (6:21 pm)12 °F (1:53 am)
Humidity68.8 %88 % (10:53 pm)53 % (1:53 pm)
Barometer30.04 in30.10 in (7:53 pm)29.95 in (2:53 pm)
Wind Speed15.7 mph27.6 mph (2:53 am)
Wind Gust34.5 mph (2:53 am)
Weather ElementAverage
Visibility10 mi
Wind DirectionSSW (189.2 °)

Weather ElementTotal
Precipitation---
Heating Degree Days35 (Base 65)
Averaged from 24 records on February 13, 2013
WEATHER CONDITIONS BREAKOUT
WIND DIRECTION BREAKOUT
WEATHER BY HOUR - FEBRUARY 13, 2013
[ °C ]   °F
Local TimeTemperatureDewpointHumidityBarometerVisibilityWind DirectionWind SpeedGust SpeedPrecipitationEventsConditions
1:53 AM21.0 °F12.0 °F68 %30.09 inSW (220°)17.3 mphClear
2:53 AM21.9 °F12.9 °F68 %30.05 inSSW (210°)27.6 mph34.5 mphClear
3:53 AM21.0 °F12.9 °F71 %30.05 inSW (220°)24.2 mph33.4 mphClear
4:53 AM21.0 °F12.9 °F71 %30.08 inSW (230°)23.0 mph28.8 mphClear
5:53 AM23.0 °F12.9 °F65 %30.05 in10.0 miSSW (200°)25.3 mph31.1 mphClear
6:53 AM24.1 °F14.0 °F65 %30.06 in10.0 miSW (220°)20.7 mph31.1 mphClear
7:53 AM25.0 °F15.1 °F66 %30.05 in10.0 miSW (220°)24.2 mph34.5 mphClear
8:53 AM27.0 °F17.1 °F66 %30.06 in10.0 miSW (220°)19.6 mph28.8 mphClear
9:53 AM30.0 °F18.0 °F61 %30.04 in10.0 miSSW (200°)20.7 mphClear
10:53 AM33.1 °F19.0 °F56 %30.02 in10.0 miSW (220°)19.6 mphClear
11:53 AM34.0 °F19.9 °F56 %30.00 in10.0 miSW (220°)23.0 mph29.9 mphClear
12:53 PM36.0 °F21.9 °F57 %29.98 in10.0 miSW (220°)19.6 mphClear
1:53 PM39.0 °F23.0 °F53 %29.96 in10.0 miWSW (240°)17.3 mph25.3 mphClear
2:53 PM39.0 °F23.0 °F53 %29.95 in10.0 miWSW (250°)20.7 mph26.5 mphClear
3:53 PM37.9 °F23.0 °F55 %29.97 in10.0 miWSW (250°)19.6 mphClear
4:53 PM36.0 °F24.1 °F62 %30.00 in10.0 miSSW (210°)11.5 mphClear
5:53 PM30.9 °F21.9 °F69 %30.04 in10.0 miNNW (340°)5.8 mphPartly Cloudy
6:21 PM30.2 °F26.6 °F86 %29.97 in10.0 miNE (50°)12.7 mphOvercast
6:53 PM28.9 °F24.1 °F82 %30.07 in10.0 miNE (50°)6.9 mphMostly Cloudy
7:53 PM26.1 °F21.9 °F84 %30.10 in10.0 miEast (80°)3.5 mphPartly Cloudy
8:53 PM27.0 °F21.9 °F81 %30.09 in10.0 miESE (120°)4.6 mphOvercast
9:53 PM26.1 °F21.0 °F81 %30.09 in10.0 miEast (90°)4.6 mphOvercast
10:53 PM24.1 °F21.0 °F88 %30.09 in10.0 miCalmOvercast
11:53 PM24.1 °F21.0 °F88 %30.09 inWest (260°)4.6 mphOvercast
Hourly data recorded from KCPR, located miles away from Evansville, Wyoming







STORIES FROM OUR PARTNERS